Time,TemperatureF,DewpointF,PressureIn,WindDirection,WindDirectionDegrees,WindSpeedMPH,WindSpeedGustMPH,Humidity,HourlyPrecipIn,Conditions,Clouds,dailyrainin,SoftwareType,DateUTC
2013-10-05 00:02:00,40.6,32.4,30.14,North,351,1.0,6.0,72,0.00,,,0.00,meteohub,2013-10-04 22:02:00,
2013-10-05 00:12:00,40.3,32.4,30.14,NNW,344,1.0,6.0,73,0.00,,,0.00,meteohub,2013-10-04 22:12:00,
2013-10-05 00:17:00,40.3,32.4,30.14,North,351,0.0,6.0,73,0.00,,,0.00,meteohub,2013-10-04 22:17:00,
2013-10-05 00:22:00,40.1,32.5,30.14,North,355,1.0,6.0,74,0.00,,,0.00,meteohub,2013-10-04 22:22:00,
2013-10-05 00:27:00,39.9,32.4,30.14,NW,320,1.0,6.0,74,0.00,,,0.00,meteohub,2013-10-04 22:27:00,
2013-10-05 00:32:00,39.9,32.4,30.14,NNW,343,0.0,6.0,74,0.00,,,0.00,meteohub,2013-10-04 22:32:00,
2013-10-05 00:37:00,39.9,32.7,30.14,North,0,1.0,6.0,75,0.00,,,0.00,meteohub,2013-10-04 22:37:00,
2013-10-05 00:42:00,39.7,32.5,30.14,NNW,347,2.0,5.0,75,0.00,,,0.00,meteohub,2013-10-04 22:42:00,
2013-10-05 00:52:00,39.7,32.5,30.14,NNE,14,0.0,4.0,75,0.00,,,0.00,meteohub,2013-10-04 22:52:00,
2013-10-05 00:57:00,39.6,32.4,30.14,NNE,14,0.0,4.0,75,0.00,,,0.00,meteohub,2013-10-04 22:57:00,
2013-10-05 01:02:00,39.4,32.5,30.14,North,11,0.0,2.0,76,0.00,,,0.00,meteohub,2013-10-04 23:02:00,
2013-10-05 01:07:00,39.4,32.5,30.14,North,11,1.0,2.0,76,0.00,,,0.00,meteohub,2013-10-04 23:07:00,
2013-10-05 01:12:00,39.2,32.4,30.14,North,11,0.0,2.0,76,0.00,,,0.00,meteohub,2013-10-04 23:12:00,
2013-10-05 01:22:00,39.0,32.2,30.14,North,11,1.0,2.0,76,0.00,,,0.00,meteohub,2013-10-04 23:22:00,
2013-10-05 01:27:00,38.8,32.2,30.14,North,11,1.0,2.0,77,0.00,,,0.00,meteohub,2013-10-04 23:27:00,
2013-10-05 01:32:00,38.8,32.2,30.14,North,5,0.0,2.0,77,0.00,,,0.00,meteohub,2013-10-04 23:32:00,
2013-10-05 01:37:00,38.7,32.0,30.13,North,5,1.0,2.0,77,0.00,,,0.00,meteohub,2013-10-04 23:37:00,
2013-10-05 01:42:00,38.5,32.2,30.12,North,355,4.0,5.0,78,0.00,,,0.00,meteohub,2013-10-04 23:42:00,
2013-10-05 01:47:00,38.5,32.2,30.12,NNW,337,1.0,6.0,78,0.00,,,0.00,meteohub,2013-10-04 23:47:00,
2013-10-05 01:52:00,38.3,32.0,30.12,North,5,2.0,6.0,78,0.00,,,0.00,meteohub,2013-10-04 23:52:00,
2013-10-05 02:02:00,38.5,32.2,30.13,North,351,0.0,5.0,78,0.00,,,0.00,meteohub,2013-10-05 00:02:00,
2013-10-05 02:07:00,38.5,32.2,30.13,North,351,0.0,5.0,78,0.00,,,0.00,meteohub,2013-10-05 00:07:00,
2013-10-05 02:12:00,38.3,32.0,30.13,North,351,0.0,2.0,78,0.00,,,0.00,meteohub,2013-10-05 00:12:00,
2013-10-05 02:17:00,38.1,32.2,30.13,North,351,1.0,1.0,79,0.00,,,0.00,meteohub,2013-10-05 00:17:00,
2013-10-05 02:22:00,37.9,32.0,30.13,North,351,0.0,2.0,79,0.00,,,0.00,meteohub,2013-10-05 00:22:00,
2013-10-05 02:32:00,37.9,32.0,30.12,North,351,0.0,2.0,79,0.00,,,0.00,meteohub,2013-10-05 00:32:00,
2013-10-05 02:37:00,37.8,31.8,30.13,North,351,0.0,2.0,79,0.00,,,0.00,meteohub,2013-10-05 00:37:00,
2013-10-05 02:42:00,37.8,31.8,30.12,North,351,0.0,2.0,79,0.00,,,0.00,meteohub,2013-10-05 00:42:00,
2013-10-05 02:47:00,37.8,31.8,30.13,North,351,0.0,2.0,79,0.00,,,0.00,meteohub,2013-10-05 00:47:00,
2013-10-05 02:52:00,37.8,31.8,30.12,North,351,1.0,2.0,79,0.00,,,0.00,meteohub,2013-10-05 00:52:00,
2013-10-05 03:02:00,37.6,31.6,30.12,North,351,0.0,2.0,79,0.00,,,0.00,meteohub,2013-10-05 01:02:00,
2013-10-05 03:07:00,37.6,31.6,30.12,North,351,0.0,2.0,79,0.00,,,0.00,meteohub,2013-10-05 01:07:00,
2013-10-05 03:12:00,37.4,31.8,30.12,North,351,0.0,2.0,80,0.00,,,0.00,meteohub,2013-10-05 01:12:00,
2013-10-05 03:17:00,37.2,31.6,30.12,North,351,0.0,2.0,80,0.00,,,0.00,meteohub,2013-10-05 01:17:00,
2013-10-05 03:22:00,37.0,31.5,30.12,North,351,0.0,2.0,80,0.00,,,0.00,meteohub,2013-10-05 01:22:00,
2013-10-05 03:27:00,36.9,31.6,30.12,North,351,0.0,2.0,81,0.00,,,0.00,meteohub,2013-10-05 01:27:00,
2013-10-05 03:37:00,36.7,31.5,30.11,North,351,0.0,2.0,81,0.00,,,0.00,meteohub,2013-10-05 01:37:00,
2013-10-05 03:42:00,36.5,31.3,30.11,North,351,1.0,2.0,81,0.00,,,0.00,meteohub,2013-10-05 01:42:00,
2013-10-05 03:47:00,36.3,31.3,30.11,North,351,0.0,2.0,82,0.00,,,0.00,meteohub,2013-10-05 01:47:00,
2013-10-05 03:52:00,36.3,31.3,30.11,North,351,0.0,2.0,82,0.00,,,0.00,meteohub,2013-10-05 01:52:00,
2013-10-05 04:02:00,36.3,31.3,30.10,North,355,1.0,1.0,82,0.00,,,0.00,meteohub,2013-10-05 02:02:00,
2013-10-05 04:07:00,36.1,31.1,30.10,North,355,0.0,3.0,82,0.00,,,0.00,meteohub,2013-10-05 02:07:00,
2013-10-05 04:12:00,36.1,31.1,30.10,North,355,0.0,3.0,82,0.00,,,0.00,meteohub,2013-10-05 02:12:00,
2013-10-05 04:17:00,36.0,31.3,30.10,North,355,0.0,3.0,83,0.00,,,0.00,meteohub,2013-10-05 02:17:00,
2013-10-05 04:22:00,36.0,31.3,30.10,North,0,0.0,2.0,83,0.00,,,0.00,meteohub,2013-10-05 02:22:00,
2013-10-05 04:27:00,36.0,31.3,30.09,NNW,345,3.0,4.0,83,0.00,,,0.00,meteohub,2013-10-05 02:27:00,
2013-10-05 04:37:00,36.0,31.3,30.09,NNW,340,2.0,6.0,83,0.00,,,0.00,meteohub,2013-10-05 02:37:00,
2013-10-05 04:42:00,36.0,31.3,30.09,North,355,1.0,6.0,83,0.00,,,0.00,meteohub,2013-10-05 02:42:00,
2013-10-05 04:47:00,35.8,31.1,30.09,North,355,1.0,5.0,83,0.00,,,0.00,meteohub,2013-10-05 02:47:00,
2013-10-05 04:52:00,35.8,31.5,30.09,NNW,347,4.0,5.0,84,0.00,,,0.00,meteohub,2013-10-05 02:52:00,
2013-10-05 04:57:00,35.8,31.5,30.08,North,11,5.0,7.0,84,0.00,,,0.00,meteohub,2013-10-05 02:57:00,
2013-10-05 05:02:00,35.8,31.5,30.08,NNW,327,5.0,7.0,84,0.00,,,0.00,meteohub,2013-10-05 03:02:00,
2013-10-05 05:07:00,35.8,31.5,30.08,NNW,346,6.0,7.0,84,0.00,,,0.00,meteohub,2013-10-05 03:07:00,
2013-10-05 05:17:00,35.8,31.5,30.08,NNW,348,4.0,8.0,84,0.00,,,0.00,meteohub,2013-10-05 03:17:00,
2013-10-05 05:22:00,35.8,31.5,30.07,North,350,4.0,8.0,84,0.00,,,0.00,meteohub,2013-10-05 03:22:00,
2013-10-05 05:27:00,35.8,31.5,30.07,North,355,3.0,8.0,84,0.00,,,0.00,meteohub,2013-10-05 03:27:00,
2013-10-05 05:32:00,35.8,31.5,30.07,North,0,1.0,8.0,84,0.00,,,0.00,meteohub,2013-10-05 03:32:00,
2013-10-05 05:37:00,35.6,31.3,30.07,North,350,2.0,8.0,84,0.00,,,0.00,meteohub,2013-10-05 03:37:00,
2013-10-05 05:42:00,35.6,31.3,30.08,North,0,3.0,7.0,84,0.00,,,0.00,meteohub,2013-10-05 03:42:00,
2013-10-05 05:47:00,35.4,31.1,30.08,North,5,0.0,6.0,84,0.00,,,0.00,meteohub,2013-10-05 03:47:00,
2013-10-05 05:52:00,35.4,31.1,30.08,North,5,0.0,5.0,84,0.00,,,0.00,meteohub,2013-10-05 03:52:00,
2013-10-05 05:57:00,35.4,31.1,30.08,North,5,0.0,4.0,84,0.00,,,0.00,meteohub,2013-10-05 03:57:00,
2013-10-05 06:02:00,35.4,31.1,30.07,North,5,0.0,2.0,84,0.00,,,0.00,meteohub,2013-10-05 04:02:00,
2013-10-05 06:07:00,35.2,31.1,30.07,North,0,2.0,2.0,85,0.00,,,0.00,meteohub,2013-10-05 04:07:00,
2013-10-05 06:12:00,35.2,31.1,30.07,North,355,1.0,4.0,85,0.00,,,0.00,meteohub,2013-10-05 04:12:00,
2013-10-05 06:17:00,35.2,31.1,30.07,North,0,1.0,4.0,85,0.00,,,0.00,meteohub,2013-10-05 04:17:00,
2013-10-05 06:22:00,35.2,31.1,30.07,North,9,5.0,5.0,85,0.00,,,0.00,meteohub,2013-10-05 04:22:00,
2013-10-05 06:27:00,35.2,30.9,30.07,NNW,333,1.0,6.0,84,0.00,,,0.00,meteohub,2013-10-05 04:27:00,
2013-10-05 06:32:00,35.2,30.9,30.07,North,350,2.0,6.0,84,0.00,,,0.00,meteohub,2013-10-05 04:32:00,
2013-10-05 06:37:00,35.2,30.9,30.07,NNW,344,3.0,6.0,84,0.00,,,0.00,meteohub,2013-10-05 04:37:00,
2013-10-05 06:47:00,35.2,30.9,30.07,NNE,17,2.0,6.0,84,0.00,,,0.00,meteohub,2013-10-05 04:47:00,
2013-10-05 06:52:00,35.2,30.9,30.07,North,355,0.0,6.0,84,0.00,,,0.00,meteohub,2013-10-05 04:52:00,
2013-10-05 06:57:00,35.1,30.7,30.07,North,355,0.0,5.0,84,0.00,,,0.00,meteohub,2013-10-05 04:57:00,
2013-10-05 07:02:00,35.1,30.7,30.07,North,355,0.0,3.0,84,0.00,,,0.00,meteohub,2013-10-05 05:02:00,
2013-10-05 07:07:00,34.9,30.9,30.07,North,355,0.0,2.0,85,0.00,,,0.00,meteohub,2013-10-05 05:07:00,
2013-10-05 07:17:00,34.5,30.6,30.07,North,355,0.0,0.0,85,0.00,,,0.00,meteohub,2013-10-05 05:17:00,
2013-10-05 07:22:00,34.3,30.6,30.07,North,355,0.0,0.0,86,0.00,,,0.00,meteohub,2013-10-05 05:22:00,
2013-10-05 07:27:00,34.3,30.6,30.07,North,355,0.0,1.0,86,0.00,,,0.00,meteohub,2013-10-05 05:27:00,
2013-10-05 07:32:00,34.3,30.6,30.06,NNW,329,0.0,2.0,86,0.00,,,0.00,meteohub,2013-10-05 05:32:00,
2013-10-05 07:37:00,34.3,30.6,30.06,NNW,329,0.0,2.0,86,0.00,,,0.00,meteohub,2013-10-05 05:37:00,
2013-10-05 07:42:00,34.3,30.9,30.06,NNW,329,0.0,1.0,87,0.00,,,0.00,meteohub,2013-10-05 05:42:00,
2013-10-05 07:47:00,34.3,30.9,30.06,NNW,329,0.0,1.0,87,0.00,,,0.00,meteohub,2013-10-05 05:47:00,
2013-10-05 07:52:00,34.2,30.7,30.06,NNW,329,0.0,1.0,87,0.00,,,0.00,meteohub,2013-10-05 05:52:00,
2013-10-05 07:57:00,34.2,30.7,30.06,NNW,329,0.0,1.0,87,0.00,,,0.00,meteohub,2013-10-05 05:57:00,
2013-10-05 08:02:00,34.3,30.9,30.06,NNW,329,0.0,1.0,87,0.00,,,0.00,meteohub,2013-10-05 06:02:00,
2013-10-05 08:07:00,34.3,30.9,30.06,NNW,329,0.0,1.0,87,0.00,,,0.00,meteohub,2013-10-05 06:07:00,
2013-10-05 08:17:00,34.5,31.1,30.06,NNW,329,0.0,1.0,87,0.00,,,0.00,meteohub,2013-10-05 06:17:00,
2013-10-05 08:27:00,35.1,31.3,30.06,NNW,329,0.0,2.0,86,0.00,,,0.00,meteohub,2013-10-05 06:27:00,
2013-10-05 08:37:00,36.0,32.2,30.06,North,351,0.0,1.0,86,0.00,,,0.00,meteohub,2013-10-05 06:37:00,
2013-10-05 08:47:00,37.8,32.5,30.06,North,5,1.0,5.0,81,0.00,,,0.00,meteohub,2013-10-05 06:47:00,
2013-10-05 08:52:00,38.3,32.4,30.05,NNE,15,3.0,5.0,79,0.00,,,0.00,meteohub,2013-10-05 06:52:00,
2013-10-05 08:57:00,38.8,32.9,30.05,North,5,1.0,6.0,79,0.00,,,0.00,meteohub,2013-10-05 06:57:00,
2013-10-05 09:02:00,39.0,32.7,30.05,NE,37,3.0,6.0,78,0.00,,,0.00,meteohub,2013-10-05 07:02:00,
2013-10-05 09:12:00,39.7,33.1,30.05,NNW,344,2.0,6.0,77,0.00,,,0.00,meteohub,2013-10-05 07:12:00,
2013-10-05 09:17:00,39.9,33.3,30.05,North,0,5.0,5.0,77,0.00,,,0.00,meteohub,2013-10-05 07:17:00,
2013-10-05 09:22:00,40.1,33.1,30.05,North,5,4.0,8.0,76,0.00,,,0.00,meteohub,2013-10-05 07:22:00,
2013-10-05 09:27:00,40.5,33.4,30.05,SW,225,0.0,8.0,76,0.00,,,0.00,meteohub,2013-10-05 07:27:00,
2013-10-05 09:37:00,41.7,33.6,30.05,North,5,7.0,7.0,73,0.00,,,0.00,meteohub,2013-10-05 07:37:00,
2013-10-05 09:47:00,41.2,33.4,30.06,North,355,0.0,7.0,74,0.00,,,0.00,meteohub,2013-10-05 07:47:00,
2013-10-05 09:57:00,42.1,34.0,30.06,NNE,26,0.0,7.0,73,0.00,,,0.00,meteohub,2013-10-05 07:57:00,
2013-10-05 10:07:00,43.3,34.5,30.06,NNW,344,3.0,4.0,71,0.00,,,0.00,meteohub,2013-10-05 08:07:00,
2013-10-05 10:12:00,43.5,34.7,30.06,NNE,19,3.0,4.0,71,0.00,,,0.00,meteohub,2013-10-05 08:12:00,
2013-10-05 10:17:00,43.7,33.8,30.06,North,355,6.0,6.0,68,0.00,,,0.00,meteohub,2013-10-05 08:17:00,
2013-10-05 10:22:00,43.3,33.8,30.06,North,355,2.0,8.0,69,0.00,,,0.00,meteohub,2013-10-05 08:22:00,
2013-10-05 10:32:00,44.1,34.5,30.06,North,355,1.0,8.0,69,0.00,,,0.00,meteohub,2013-10-05 08:32:00,
2013-10-05 10:42:00,45.0,34.0,30.07,North,5,2.0,6.0,65,0.00,,,0.00,meteohub,2013-10-05 08:42:00,
2013-10-05 10:47:00,45.0,34.3,30.07,NNW,342,2.0,6.0,66,0.00,,,0.00,meteohub,2013-10-05 08:47:00,
2013-10-05 10:52:00,45.1,34.9,30.07,North,5,0.0,6.0,67,0.00,,,0.00,meteohub,2013-10-05 08:52:00,
2013-10-05 10:57:00,45.3,34.3,30.06,North,349,2.0,6.0,65,0.00,,,0.00,meteohub,2013-10-05 08:57:00,
2013-10-05 11:02:00,45.7,34.5,30.06,North,355,7.0,7.0,65,0.00,,,0.00,meteohub,2013-10-05 09:02:00,
2013-10-05 11:07:00,45.5,34.0,30.06,North,0,0.0,9.0,64,0.00,,,0.00,meteohub,2013-10-05 09:07:00,
2013-10-05 11:12:00,45.9,34.3,30.07,North,355,4.0,9.0,64,0.00,,,0.00,meteohub,2013-10-05 09:12:00,
2013-10-05 11:22:00,45.9,34.7,30.07,NNW,345,4.0,7.0,65,0.00,,,0.00,meteohub,2013-10-05 09:22:00,
2013-10-05 11:27:00,46.4,34.9,30.06,North,355,6.0,8.0,64,0.00,,,0.00,meteohub,2013-10-05 09:27:00,
2013-10-05 11:32:00,46.2,34.7,30.07,NNW,348,2.0,8.0,64,0.00,,,0.00,meteohub,2013-10-05 09:32:00,
2013-10-05 11:37:00,46.8,34.9,30.07,ESE,107,1.0,8.0,63,0.00,,,0.00,meteohub,2013-10-05 09:37:00,
2013-10-05 11:47:00,47.5,35.1,30.07,North,5,2.0,6.0,62,0.00,,,0.00,meteohub,2013-10-05 09:47:00,
2013-10-05 11:57:00,47.7,34.9,30.06,North,0,3.0,8.0,61,0.00,,,0.00,meteohub,2013-10-05 09:57:00,
2013-10-05 12:02:00,47.7,35.2,30.06,NNW,348,2.0,8.0,62,0.00,,,0.00,meteohub,2013-10-05 10:02:00,
2013-10-05 12:12:00,48.0,35.2,30.05,North,350,2.0,7.0,61,0.00,,,0.00,meteohub,2013-10-05 10:12:00,
2013-10-05 12:22:00,48.4,35.1,30.05,North,5,5.0,7.0,60,0.00,,,0.00,meteohub,2013-10-05 10:22:00,
2013-10-05 12:32:00,48.6,35.8,30.04,North,5,4.0,10.0,61,0.00,,,0.00,meteohub,2013-10-05 10:32:00,
2013-10-05 12:37:00,48.6,35.2,30.04,NNE,20,0.0,8.0,60,0.00,,,0.00,meteohub,2013-10-05 10:37:00,
2013-10-05 12:47:00,48.7,35.4,30.04,North,5,1.0,8.0,60,0.00,,,0.00,meteohub,2013-10-05 10:47:00,
2013-10-05 12:57:00,49.3,36.0,30.03,North,5,5.0,10.0,60,0.00,,,0.00,meteohub,2013-10-05 10:57:00,
2013-10-05 13:02:00,49.1,36.3,30.03,NNW,344,6.0,8.0,61,0.00,,,0.00,meteohub,2013-10-05 11:02:00,
2013-10-05 13:12:00,49.6,36.0,30.02,North,0,3.0,8.0,59,0.00,,,0.00,meteohub,2013-10-05 11:12:00,
2013-10-05 13:17:00,49.5,36.1,30.03,North,0,7.0,10.0,60,0.00,,,0.00,meteohub,2013-10-05 11:17:00,
2013-10-05 13:22:00,49.6,36.7,30.03,NNW,343,1.0,10.0,61,0.00,,,0.00,meteohub,2013-10-05 11:22:00,
2013-10-05 13:27:00,50.0,36.7,30.03,North,5,1.0,10.0,60,0.00,,,0.00,meteohub,2013-10-05 11:27:00,
2013-10-05 13:32:00,50.4,37.0,30.03,North,350,2.0,9.0,60,0.00,,,0.00,meteohub,2013-10-05 11:32:00,
2013-10-05 13:37:00,50.5,37.2,30.03,North,5,6.0,7.0,60,0.00,,,0.00,meteohub,2013-10-05 11:37:00,
2013-10-05 13:47:00,50.7,36.9,30.03,North,0,2.0,8.0,59,0.00,,,0.00,meteohub,2013-10-05 11:47:00,
2013-10-05 13:52:00,51.1,37.2,30.03,NNW,348,2.0,8.0,59,0.00,,,0.00,meteohub,2013-10-05 11:52:00,
2013-10-05 13:57:00,51.3,37.0,30.03,North,5,1.0,8.0,58,0.00,,,0.00,meteohub,2013-10-05 11:57:00,
2013-10-05 14:02:00,51.3,37.0,30.03,NNW,346,3.0,6.0,58,0.00,,,0.00,meteohub,2013-10-05 12:02:00,
2013-10-05 14:12:00,51.6,37.4,30.03,North,355,0.0,6.0,58,0.00,,,0.00,meteohub,2013-10-05 12:12:00,
2013-10-05 14:22:00,52.2,37.8,30.03,NE,34,1.0,7.0,58,0.00,,,0.00,meteohub,2013-10-05 12:22:00,
2013-10-05 14:27:00,52.2,37.4,30.03,NNW,348,0.0,8.0,57,0.00,,,0.00,meteohub,2013-10-05 12:27:00,
2013-10-05 14:32:00,52.2,37.8,30.02,North,350,3.0,8.0,58,0.00,,,0.00,meteohub,2013-10-05 12:32:00,
2013-10-05 14:42:00,52.3,37.6,30.03,North,5,6.0,6.0,57,0.00,,,0.00,meteohub,2013-10-05 12:42:00,
2013-10-05 14:52:00,52.5,38.1,30.02,NNW,337,2.0,8.0,58,0.00,,,0.00,meteohub,2013-10-05 12:52:00,
2013-10-05 15:02:00,53.1,38.3,30.02,North,350,0.0,6.0,57,0.00,,,0.00,meteohub,2013-10-05 13:02:00,
2013-10-05 15:07:00,53.1,37.8,30.02,North,355,1.0,6.0,56,0.00,,,0.00,meteohub,2013-10-05 13:07:00,
2013-10-05 15:12:00,53.1,38.3,30.02,NNW,336,3.0,8.0,57,0.00,,,0.00,meteohub,2013-10-05 13:12:00,
2013-10-05 15:22:00,53.2,38.8,30.02,North,355,1.0,8.0,58,0.00,,,0.00,meteohub,2013-10-05 13:22:00,
2013-10-05 15:32:00,53.1,39.2,30.02,NNW,327,0.0,5.0,59,0.00,,,0.00,meteohub,2013-10-05 13:32:00,
2013-10-05 15:37:00,53.2,38.5,30.02,NE,36,1.0,5.0,57,0.00,,,0.00,meteohub,2013-10-05 13:37:00,
2013-10-05 15:47:00,53.4,39.0,30.01,NNW,333,0.0,4.0,58,0.00,,,0.00,meteohub,2013-10-05 13:47:00,
2013-10-05 15:52:00,53.4,38.5,30.01,NE,38,0.0,4.0,57,0.00,,,0.00,meteohub,2013-10-05 13:52:00,
2013-10-05 16:02:00,53.6,39.2,30.01,NNE,13,0.0,4.0,58,0.00,,,0.00,meteohub,2013-10-05 14:02:00,
2013-10-05 16:12:00,53.6,39.2,30.01,North,5,0.0,1.0,58,0.00,,,0.00,meteohub,2013-10-05 14:12:00,
2013-10-05 16:17:00,53.6,39.2,30.01,NNE,14,2.0,2.0,58,0.00,,,0.00,meteohub,2013-10-05 14:17:00,
2013-10-05 16:22:00,53.4,38.5,30.01,North,351,0.0,6.0,57,0.00,,,0.00,meteohub,2013-10-05 14:22:00,
2013-10-05 16:32:00,53.4,38.5,30.01,North,355,0.0,5.0,57,0.00,,,0.00,meteohub,2013-10-05 14:32:00,
2013-10-05 16:42:00,53.4,39.0,30.01,NE,38,0.0,4.0,58,0.00,,,0.00,meteohub,2013-10-05 14:42:00,
2013-10-05 16:52:00,53.4,39.0,30.01,NNE,29,1.0,1.0,58,0.00,,,0.00,meteohub,2013-10-05 14:52:00,
2013-10-05 16:57:00,53.4,39.0,30.01,NNE,29,0.0,2.0,58,0.00,,,0.00,meteohub,2013-10-05 14:57:00,
2013-10-05 17:02:00,53.2,38.8,30.01,NNE,29,0.0,2.0,58,0.00,,,0.00,meteohub,2013-10-05 15:02:00,
2013-10-05 17:07:00,53.2,39.2,30.01,NNE,29,0.0,2.0,59,0.00,,,0.00,meteohub,2013-10-05 15:07:00,
2013-10-05 17:12:00,53.1,39.2,30.01,NNE,29,0.0,0.0,59,0.00,,,0.00,meteohub,2013-10-05 15:12:00,
2013-10-05 17:22:00,53.1,39.2,30.01,NNE,29,0.0,0.0,59,0.00,,,0.00,meteohub,2013-10-05 15:22:00,
2013-10-05 17:32:00,52.9,39.0,30.01,NNE,29,0.0,0.0,59,0.00,,,0.00,meteohub,2013-10-05 15:32:00,
2013-10-05 17:37:00,52.9,39.0,30.01,NNE,29,0.0,0.0,59,0.00,,,0.00,meteohub,2013-10-05 15:37:00,
2013-10-05 17:42:00,52.7,38.8,30.02,NNE,29,0.0,0.0,59,0.00,,,0.00,meteohub,2013-10-05 15:42:00,
2013-10-05 17:47:00,52.7,39.6,30.02,NNE,29,0.0,0.0,61,0.00,,,0.00,meteohub,2013-10-05 15:47:00,
2013-10-05 17:52:00,52.5,39.9,30.02,NNE,29,0.0,0.0,62,0.00,,,0.00,meteohub,2013-10-05 15:52:00,
2013-10-05 18:02:00,52.2,40.8,30.02,NNE,29,0.0,0.0,65,0.00,,,0.00,meteohub,2013-10-05 16:02:00,
2013-10-05 18:12:00,51.8,41.5,30.02,NNE,29,0.0,0.0,68,0.00,,,0.00,meteohub,2013-10-05 16:12:00,
2013-10-05 18:22:00,51.3,41.9,30.02,NNE,29,0.0,0.0,70,0.00,,,0.00,meteohub,2013-10-05 16:22:00,
2013-10-05 18:32:00,50.7,42.1,30.02,NNE,29,0.0,0.0,72,0.00,,,0.00,meteohub,2013-10-05 16:32:00,
2013-10-05 18:37:00,50.4,42.4,30.03,NNE,29,0.0,0.0,74,0.00,,,0.00,meteohub,2013-10-05 16:37:00,
2013-10-05 18:42:00,50.2,42.3,30.03,NNE,29,0.0,0.0,74,0.00,,,0.00,meteohub,2013-10-05 16:42:00,
2013-10-05 18:47:00,49.8,42.3,30.03,NNE,29,0.0,0.0,75,0.00,,,0.00,meteohub,2013-10-05 16:47:00,
2013-10-05 18:52:00,49.6,42.4,30.03,NNE,29,0.0,0.0,76,0.00,,,0.00,meteohub,2013-10-05 16:52:00,
2013-10-05 19:02:00,49.3,42.1,30.03,NNE,29,0.0,0.0,76,0.00,,,0.00,meteohub,2013-10-05 17:02:00,
2013-10-05 19:07:00,49.1,42.3,30.03,NNE,29,0.0,0.0,77,0.00,,,0.00,meteohub,2013-10-05 17:07:00,
2013-10-05 19:12:00,48.9,42.1,30.03,NNE,29,0.0,0.0,77,0.00,,,0.00,meteohub,2013-10-05 17:12:00,
2013-10-05 19:22:00,48.7,42.3,30.03,NNE,29,0.0,0.0,78,0.00,,,0.00,meteohub,2013-10-05 17:22:00,
2013-10-05 19:32:00,48.7,42.3,30.03,NNE,29,0.0,0.0,78,0.00,,,0.00,meteohub,2013-10-05 17:32:00,
2013-10-05 19:37:00,48.6,42.3,30.03,NNE,29,0.0,0.0,79,0.00,,,0.00,meteohub,2013-10-05 17:37:00,
2013-10-05 19:42:00,48.4,42.3,30.03,NNE,29,0.0,0.0,79,0.00,,,0.00,meteohub,2013-10-05 17:42:00,
2013-10-05 19:47:00,48.4,42.3,30.03,NNE,29,0.0,0.0,79,0.00,,,0.00,meteohub,2013-10-05 17:47:00,
2013-10-05 19:52:00,48.4,42.3,30.03,NNE,29,0.0,0.0,79,0.00,,,0.00,meteohub,2013-10-05 17:52:00,
2013-10-05 20:02:00,48.0,42.1,30.03,NNE,29,0.0,0.0,80,0.00,,,0.00,meteohub,2013-10-05 18:02:00,
2013-10-05 20:07:00,48.0,42.1,30.03,NNE,29,0.0,0.0,80,0.00,,,0.00,meteohub,2013-10-05 18:07:00,
2013-10-05 20:17:00,47.8,41.9,30.03,NNE,29,0.0,0.0,80,0.00,,,0.00,meteohub,2013-10-05 18:17:00,
2013-10-05 20:27:00,47.7,41.7,30.03,NNE,29,0.0,0.0,80,0.00,,,0.00,meteohub,2013-10-05 18:27:00,
2013-10-05 20:37:00,47.5,41.9,30.03,NNE,29,0.0,0.0,81,0.00,,,0.00,meteohub,2013-10-05 18:37:00,
2013-10-05 20:47:00,47.1,41.4,30.04,NNE,29,0.0,0.0,80,0.00,,,0.00,meteohub,2013-10-05 18:47:00,
2013-10-05 20:52:00,47.1,41.0,30.04,NNE,29,0.0,0.0,79,0.00,,,0.00,meteohub,2013-10-05 18:52:00,
2013-10-05 20:57:00,47.1,41.4,30.04,NNE,29,0.0,0.0,80,0.00,,,0.00,meteohub,2013-10-05 18:57:00,
2013-10-05 21:02:00,47.1,41.0,30.04,NNE,29,0.0,0.0,79,0.00,,,0.00,meteohub,2013-10-05 19:02:00,
2013-10-05 21:12:00,47.1,40.6,30.04,NNE,29,0.0,0.0,78,0.00,,,0.00,meteohub,2013-10-05 19:12:00,
2013-10-05 21:17:00,47.5,41.0,30.04,NNE,29,0.0,0.0,78,0.00,,,0.00,meteohub,2013-10-05 19:17:00,
2013-10-05 21:27:00,47.7,40.5,30.04,NNE,29,0.0,0.0,76,0.00,,,0.00,meteohub,2013-10-05 19:27:00,
2013-10-05 21:32:00,47.7,40.5,30.04,NNE,29,0.0,0.0,76,0.00,,,0.00,meteohub,2013-10-05 19:32:00,
2013-10-05 21:37:00,47.7,40.1,30.04,NNE,29,0.0,0.0,75,0.00,,,0.00,meteohub,2013-10-05 19:37:00,
2013-10-05 21:42:00,47.7,40.1,30.04,NNE,29,0.0,0.0,75,0.00,,,0.00,meteohub,2013-10-05 19:42:00,
2013-10-05 21:52:00,47.7,39.7,30.05,NNE,29,0.0,0.0,74,0.00,,,0.00,meteohub,2013-10-05 19:52:00,
2013-10-05 21:57:00,47.7,39.7,30.05,NNE,29,0.0,0.0,74,0.00,,,0.00,meteohub,2013-10-05 19:57:00,
2013-10-05 22:02:00,47.8,39.9,30.05,NNE,29,0.0,0.0,74,0.00,,,0.00,meteohub,2013-10-05 20:02:00,
2013-10-05 22:07:00,47.7,40.1,30.05,NNE,29,0.0,0.0,75,0.00,,,0.00,meteohub,2013-10-05 20:07:00,
2013-10-05 22:17:00,47.7,40.1,30.05,NNE,29,0.0,0.0,75,0.00,,,0.00,meteohub,2013-10-05 20:17:00,
2013-10-05 22:27:00,47.5,39.9,30.05,NNE,29,0.0,0.0,75,0.00,,,0.00,meteohub,2013-10-05 20:27:00,
2013-10-05 22:37:00,47.5,40.3,30.05,NNE,29,0.0,0.0,76,0.00,,,0.00,meteohub,2013-10-05 20:37:00,
2013-10-05 22:42:00,47.5,40.3,30.05,NNE,29,0.0,0.0,76,0.00,,,0.00,meteohub,2013-10-05 20:42:00,
2013-10-05 22:52:00,47.3,40.5,30.06,NNE,29,0.0,0.0,77,0.00,,,0.00,meteohub,2013-10-05 20:52:00,
2013-10-05 22:57:00,47.3,40.5,30.06,NNE,29,0.0,0.0,77,0.00,,,0.00,meteohub,2013-10-05 20:57:00,
2013-10-05 23:02:00,47.1,40.6,30.06,NNE,29,0.0,0.0,78,0.00,,,0.00,meteohub,2013-10-05 21:02:00,
2013-10-05 23:07:00,47.1,40.6,30.06,NNE,29,0.0,0.0,78,0.00,,,0.00,meteohub,2013-10-05 21:07:00,
2013-10-05 23:12:00,47.1,41.0,30.06,NNE,29,0.0,0.0,79,0.00,,,0.00,meteohub,2013-10-05 21:12:00,
2013-10-05 23:17:00,46.9,40.5,30.06,NNE,29,0.0,0.0,78,0.00,,,0.00,meteohub,2013-10-05 21:17:00,
2013-10-05 23:27:00,46.8,40.3,30.06,NNE,29,0.0,0.0,78,0.00,,,0.00,meteohub,2013-10-05 21:27:00,
2013-10-05 23:32:00,46.8,40.6,30.06,NNE,29,0.0,0.0,79,0.00,,,0.00,meteohub,2013-10-05 21:32:00,
2013-10-05 23:37:00,46.8,40.6,30.06,NNE,29,0.0,0.0,79,0.00,,,0.00,meteohub,2013-10-05 21:37:00,
2013-10-05 23:42:00,46.8,41.0,30.06,NNE,29,0.0,0.0,80,0.00,,,0.00,meteohub,2013-10-05 21:42:00,
2013-10-05 23:47:00,46.6,40.8,30.06,NNE,29,0.0,0.0,80,0.00,,,0.00,meteohub,2013-10-05 21:47:00,
2013-10-05 23:52:00,46.6,40.5,30.06,NNE,29,0.0,0.0,79,0.00,,,0.00,meteohub,2013-10-05 21:52:00,